Theta_e
325 325 325 324 323 322 321 320 318 317 316 313 310 308 306 305 306 306 307 308 310 312 313 316 315 319 316 315 314 313 317 320 319 316 318 314 317 316 317 316 317 317 317 318 318
325 325 324 324 323 321 320 318 316 313 311 308 306 305 305 305 305 306 311 313 310 312 317 319 321 320 317 314 314 314 317 318 313 313 315 315 316 316 317 318 317 317 317 317 317
325 324 324 323 322 320 317 315 311 309 306 305 304 304 304 304 305 310 315 314 315 316 317 320 320 318 316 314 312 310 316 312 313 312 314 315 316 315 317 317 317 317 315 316 317
323 322 322 322 320 318 315 311 307 305 304 303 303 304 304 304 305 313 313 314 316 317 317 316 315 314 314 315 312 314 312 312 315 315 314 315 314 315 315 315 315 314 315 314 314
322 321 320 319 318 313 311 307 304 303 302 303 303 303 304 305 305 306 312 313 315 316 317 317 316 313 314 314 315 315 314 314 314 314 314 313 314 314 314 314 313 313 313 312 312
320 320 318 315 312 309 305 304 302 302 301 302 302 303 303 306 306 305 306 311 313 315 315 315 315 315 314 314 315 313 314 313 313 314 312 313 313 313 312 312 312 312 312 312 312
316 315 312 309 306 304 302 301 301 301 301 302 302 302 303 304 305 306 307 307 308 311 310 313 314 314 314 314 312 313 314 313 312 312 312 311 311 313 313 313 312 312 312 312 311
310 308 306 303 302 300 300 300 301 301 301 301 302 302 303 304 305 305 306 307 309 311 314 316 313 314 314 312 312 313 312 312 311 312 311 312 312 312 312 312 312 312 312 311 310
306 304 302 300 300 299 299 300 300 300 301 302 304 304 305 305 307 307 305 307 308 307 310 316 315 314 312 313 313 312 311 312 312 310 312 312 313 312 312 312 311 311 310 309 311
303 301 299 299 299 299 299 299 300 302 305 304 306 306 304 305 309 310 312 311 310 308 312 315 313 314 311 314 311 310 313 312 312 311 312 313 313 312 312 310 310 312 312 311 310
303 301 299 298 298 298 299 301 303 305 306 304 306 305 307 310 311 312 313 313 310 312 314 312 316 316 315 313 310 310 311 312 312 312 312 313 313 312 311 313 311 312 311 309 306
304 302 299 298 298 298 299 302 305 308 307 304 305 305 306 309 310 312 313 312 313 313 312 313 316 314 311 311 312 313 314 315 313 312 313 313 313 312 313 312 308 308 307 306 305
305 302 299 298 298 298 299 302 308 308 308 306 306 306 306 305 307 307 313 313 313 313 313 314 312 312 312 312 313 313 314 314 314 313 311 312 312 314 311 311 308 307 306 304 303
304 300 299 298 299 299 300 300 308 308 304 304 308 309 307 307 307 305 310 314 312 314 313 314 313 313 314 314 313 315 312 313 313 313 315 312 315 313 311 311 308 306 302 301 301
301 299 299 298 300 303 305 303 309 307 302 306 309 309 309 308 310 311 307 312 312 312 312 312 312 312 314 314 312 313 311 312 312 313 313 313 315 313 309 310 307 305 302 301 302
300 299 299 299 300 304 308 308 308 303 300 309 310 311 310 311 312 309 309 310 311 311 311 310 309 310 312 310 311 310 312 311 311 313 315 314 314 313 310 309 306 304 302 301 301
301 301 299 299 298 304 309 310 307 303 302 309 312 312 311 312 312 309 311 312 313 313 314 311 312 311 311 313 311 312 314 314 315 314 315 310 313 314 308 307 308 305 302 300 300
302 301 301 300 299 304 309 310 306 301 302 305 313 313 313 312 311 312 310 312 310 309 311 313 311 311 311 312 313 312 313 314 315 314 312 310 314 313 308 305 304 303 303 301 298
302 301 301 301 300 302 307 308 306 305 306 304 308 313 313 312 311 312 310 310 311 310 311 312 312 310 311 310 312 313 315 313 315 312 315 313 311 308 307 305 304 304 303 300 297
301 301 301 300 299 302 306 307 306 305 307 308 303 305 307 310 312 313 313 311 311 310 309 311 313 311 311 311 310 313 311 315 316 317 315 312 312 314 309 306 306 305 303 299 298
301 300 300 300 299 302 306 306 305 306 307 307 308 310 310 308 311 311 312 311 311 310 310 311 312 312 312 314 314 312 313 312 313 314 315 313 314 309 310 307 305 303 301 299 297
300 301 301 300 302 302 304 305 304 305 305 306 308 309 309 310 310 310 311 309 310 309 311 311 313 315 313 311 311 312 314 313 315 314 312 311 314 309 309 308 305 303 301 299 296
300 300 302 303 303 303 302 303 304 306 306 306 307 309 309 310 309 310 310 309 310 311 312 312 313 315 314 313 312 314 313 313 313 312 314 314 312 308 307 307 304 303 300 297 294
299 301 300 302 302 304 302 303 304 304 304 305 307 307 308 309 309 310 309 309 308 309 311 311 312 313 314 312 312 313 313 313 314 315 314 314 312 310 308 307 305 303 299 295 293
299 301 300 301 302 303 303 304 304 304 305 305 306 307 308 308 308 308 308 308 307 308 310 311 312 311 312 310 311 311 311 312 313 313 313 312 312 311 309 308 306 299 295 294 292
298 299 299 299 302 302 302 303 303 304 305 307 307 306 307 308 308 307 308 308 309 308 310 307 311 310 311 310 311 312 311 311 311 312 313 313 313 309 308 307 298 296 295 294 292
299 299 300 299 301 303 303 303 303 303 304 304 306 306 307 307 306 306 306 306 307 308 307 307 309 309 311 309 310 312 310 310 310 310 310 311 311 305 303 301 299 296 295 293 292
Wind_Speed
17 18 18 20 20 20 21 19 20 20 21 22 23 24 24 22 20 20 16 7 6 6 6 5 5 2 2 2 2 3 2 3 3 5 2 5 5 7 9 5 11 0 7 15 18
21 21 22 22 22 21 21 21 21 22 21 22 21 21 22 21 20 18 8 5 8 6 6 8 3 3 3 2 2 1 2 5 1 0 3 5 5 8 8 17 3 5 16 15 15
23 24 24 24 23 23 22 22 21 22 21 20 19 19 20 18 18 3 1 6 9 8 7 5 2 4 3 1 1 1 3 2 1 1 6 4 6 4 8 5 10 15 19 15 12
26 25 25 25 25 23 22 22 21 20 19 19 18 18 17 14 5 4 5 8 9 7 4 3 3 2 2 2 1 3 4 2 4 4 6 6 6 8 13 13 12 16 12 18 20
26 25 25 24 24 23 22 21 20 18 17 17 17 17 17 7 10 11 11 12 10 6 3 1 2 3 3 2 1 4 2 3 7 12 12 8 10 8 12 11 4 7 14 22 25
28 26 24 23 22 21 20 20 18 17 16 16 16 17 15 6 11 12 13 16 15 11 6 2 2 5 3 1 2 0 4 9 7 13 8 5 4 3 3 8 13 18 23 25 30
25 24 22 21 20 19 18 17 16 16 15 17 16 17 18 21 14 13 12 14 16 13 8 6 7 5 3 1 1 3 6 7 4 1 1 4 1 5 1 16 25 24 23 25 19
23 21 20 19 17 16 16 15 15 15 14 15 16 15 12 11 11 15 17 16 13 9 5 8 8 6 1 1 4 2 2 3 2 7 3 4 3 5 8 26 30 31 31 25 16
19 19 18 18 15 15 14 14 14 14 13 12 10 9 11 8 7 9 13 14 11 19 11 10 8 4 3 3 2 2 3 0 5 4 4 10 5 12 28 22 22 26 25 18 12
17 18 18 16 14 13 12 12 12 9 7 9 11 6 9 4 5 5 7 8 3 16 12 7 4 3 2 5 5 3 3 3 3 3 8 13 11 10 19 16 13 16 17 11 13
16 16 16 15 13 12 10 6 4 4 11 11 5 5 2 6 8 7 8 11 14 6 5 4 5 12 13 9 3 3 2 6 6 9 6 5 12 13 9 15 18 19 15 15 15
17 15 14 13 11 11 11 6 4 3 10 16 24 24 19 4 3 9 10 9 6 4 8 4 10 12 6 8 8 6 7 12 7 5 6 8 15 5 12 11 12 14 15 13 12
16 15 13 10 10 13 13 9 5 4 5 9 17 20 19 20 11 13 17 8 4 6 10 6 1 7 11 7 7 4 10 7 8 6 4 6 1 4 8 11 12 15 14 14 13
17 15 11 10 9 12 14 10 10 3 2 5 6 5 10 11 7 22 20 10 4 11 9 6 3 6 8 5 7 5 10 9 7 5 4 5 5 7 3 8 11 11 11 9 9
17 15 12 13 6 9 6 11 11 4 3 4 5 8 9 8 3 2 21 10 8 6 6 4 5 5 7 8 7 4 5 5 1 3 4 4 5 4 1 1 4 3 5 6 9
16 14 14 14 13 10 11 16 13 4 8 2 5 7 7 4 0 7 5 9 7 4 1 2 1 4 4 3 7 6 4 4 3 0 6 7 8 6 5 4 4 5 4 4 5
16 14 13 13 14 13 17 16 3 5 2 4 4 6 5 6 4 3 11 9 8 7 8 1 6 2 4 4 2 6 5 2 2 3 5 3 5 10 10 7 7 8 6 2 1
23 18 17 16 13 18 21 3 5 3 4 0 4 6 6 7 3 4 9 8 5 3 3 8 4 12 8 16 7 9 10 5 6 4 1 1 6 2 6 9 8 8 7 4 3
22 23 25 19 19 19 14 6 7 6 3 4 4 3 3 3 3 4 9 6 9 11 7 6 4 2 3 4 13 6 6 8 6 3 4 5 5 4 10 9 11 11 10 6 2
29 24 26 19 20 21 7 12 7 4 1 1 6 3 6 4 6 9 9 5 6 15 5 5 2 5 5 6 3 5 10 3 3 5 6 6 7 8 14 13 13 14 14 9 5
27 10 8 23 24 18 9 11 7 4 5 2 2 2 2 3 5 4 3 2 4 6 15 5 3 3 8 9 13 5 5 2 2 2 4 6 6 5 17 19 19 18 15 13 8
25 4 16 32 14 12 13 12 7 1 22 4 3 2 3 2 1 3 4 2 4 5 8 7 3 8 15 2 8 7 10 12 5 5 3 2 10 1 12 17 21 19 17 13 7
19 10 21 32 9 11 12 19 16 3 5 3 4 5 2 3 3 5 3 2 4 5 6 6 3 5 5 1 2 7 8 9 6 3 14 6 9 4 8 15 19 20 18 14 9
10 4 7 16 13 10 14 16 15 14 17 14 4 4 2 6 4 2 3 1 2 3 2 5 6 8 10 3 4 5 11 14 14 6 9 16 21 9 11 12 17 20 18 15 10
11 4 8 7 11 10 11 5 17 11 13 15 11 12 9 9 10 11 9 9 3 4 4 6 11 7 13 10 7 8 12 13 15 17 11 22 16 14 18 17 22 21 18 15 11
13 5 5 5 20 19 14 14 20 12 10 6 10 11 14 12 12 5 6 5 7 2 5 4 10 6 14 9 13 14 15 14 16 18 16 18 21 8 19 18 22 24 23 19 14
16 16 12 7 11 13 11 19 17 12 9 17 12 7 9 11 10 10 9 7 5 4 5 3 5 6 12 6 7 10 19 18 14 17 15 16 19 10 11 20 28 27 23 19 16
Wind_Direction
273 282 286 291 294 297 299 300 303 305 305 307 308 309 310 314 316 312 312 280 212 202 225 196 193 119 88 97 99 119 115 226 237 169 101 53 29 357 329 270 316 212 347 326 326
270 275 280 283 287 289 292 295 298 300 302 303 305 307 309 317 319 312 300 231 199 209 177 180 165 86 88 66 44 86 178 213 309 80 68 20 26 321 324 306 318 287 322 326 321
271 276 278 280 282 286 289 292 295 297 299 299 302 304 309 321 323 284 109 160 156 150 157 171 125 69 88 85 38 135 227 234 140 114 12 342 350 337 287 293 306 318 325 338 352
271 273 275 278 279 281 285 289 291 294 294 296 299 300 304 315 298 221 192 170 167 159 143 124 87 67 129 181 121 259 254 262 324 349 335 313 296 288 269 276 302 317 347 344 339
270 271 270 271 274 277 280 282 285 288 287 290 293 295 301 297 261 250 225 219 218 227 236 120 38 132 194 154 234 223 243 297 302 310 294 282 263 260 271 296 359 347 334 337 338
268 267 265 266 268 271 274 276 281 282 285 285 289 293 295 269 260 255 235 231 235 241 253 280 155 154 130 155 216 76 304 302 300 291 291 268 260 199 130 7 344 337 333 337 337
260 260 260 260 263 266 268 272 277 279 283 283 283 286 285 269 262 250 238 235 241 246 252 186 166 174 139 172 322 321 312 315 309 73 61 282 34 127 203 340 330 330 332 336 343
253 252 253 253 255 259 263 269 275 277 275 272 278 282 267 267 257 246 240 236 232 201 165 177 157 133 179 98 17 360 95 308 34 348 19 358 285 307 347 332 329 326 327 336 347
247 247 246 245 248 252 258 270 278 275 273 267 270 268 265 256 253 234 230 241 235 225 190 152 150 139 147 111 327 28 258 197 314 61 25 24 299 318 319 321 314 318 327 349 2
241 238 239 239 240 248 256 264 275 279 257 269 249 267 248 227 191 176 180 174 154 155 154 159 120 150 116 171 236 202 212 176 241 306 341 311 288 288 298 327 345 346 354 43 29
233 233 235 237 235 239 242 259 254 251 233 212 220 229 208 170 209 197 169 140 129 150 151 171 183 210 207 196 145 143 223 274 275 272 299 276 302 293 340 45 24 20 61 53 53
226 227 234 233 227 226 224 208 215 294 293 261 246 248 239 205 213 211 179 172 162 165 128 132 236 223 137 174 202 232 271 270 289 269 287 301 305 55 62 69 55 56 55 51 45
223 223 226 232 222 225 224 213 180 308 266 276 236 238 240 228 233 211 184 176 151 155 182 176 203 172 175 168 191 218 241 256 268 316 267 320 113 180 84 80 65 59 59 54 49
218 220 216 210 222 231 228 204 176 322 329 242 210 238 184 178 233 236 201 175 185 200 167 229 202 133 167 189 178 236 222 241 263 307 295 0 296 206 157 64 66 66 72 59 45
213 213 209 199 200 189 199 174 165 172 301 107 147 143 168 198 136 112 198 196 174 162 168 216 167 163 207 228 171 240 167 206 226 237 306 223 258 144 149 114 98 58 82 83 72
209 203 203 199 205 160 138 145 144 53 244 164 136 148 154 239 84 114 149 192 165 119 46 196 173 158 187 81 181 135 104 61 57 359 266 230 222 171 190 199 195 178 164 123 69
207 213 214 202 209 172 153 152 102 182 341 180 176 169 181 167 160 127 167 168 161 170 221 181 219 171 165 137 69 168 149 278 249 191 256 102 219 275 181 208 212 181 159 161 72
213 232 228 218 197 168 172 145 206 211 210 26 132 135 183 155 187 133 146 187 232 108 128 190 242 181 195 214 186 188 208 208 241 210 227 190 239 273 170 171 158 160 174 155 112
219 216 226 211 199 181 181 207 217 192 198 180 135 142 208 204 151 147 175 195 208 185 190 169 251 179 177 150 181 171 206 232 265 182 248 230 248 214 167 180 175 193 192 170 169
201 204 221 202 198 191 196 220 221 209 153 78 179 175 182 195 170 185 179 189 207 195 196 195 178 219 138 112 71 193 148 130 176 235 234 229 253 245 193 190 194 202 192 181 200
194 191 208 195 187 190 203 223 219 232 55 337 141 131 153 159 184 195 196 215 212 198 202 163 222 160 148 204 174 165 200 166 191 218 254 271 253 206 200 192 198 200 189 189 192
175 178 174 176 172 187 212 210 229 81 237 284 34 163 166 120 75 198 211 246 127 136 165 208 202 233 221 58 204 199 197 193 213 208 223 326 267 245 205 191 194 188 178 183 187
171 157 172 177 185 189 223 229 236 235 215 189 224 202 126 162 226 224 214 49 162 156 170 173 202 241 218 260 298 207 197 198 210 230 239 250 269 121 158 174 189 181 175 172 172
151 155 156 193 209 191 205 229 215 229 249 256 299 202 191 225 224 224 205 346 95 138 96 208 189 241 247 222 162 199 215 215 210 232 262 249 273 196 197 196 197 183 172 163 163
163 185 171 168 199 204 197 199 215 228 214 209 229 233 217 233 242 247 249 260 240 220 162 173 256 232 251 239 217 241 241 223 216 228 236 269 253 235 200 194 193 172 163 157 162
151 152 145 161 188 194 203 223 232 211 200 212 221 209 215 233 225 239 211 206 233 144 188 175 253 245 261 237 227 238 241 241 238 245 250 254 263 220 209 194 166 172 169 167 168
178 180 170 174 184 191 200 212 225 206 221 229 207 216 226 236 232 252 261 255 233 214 190 189 212 197 254 241 218 245 239 230 234 234 232 237 245 166 170 178 181 177 172 168 163